When you browse on this site, cookies collect data to enhance your experience and personalize the content and advertising you see.
Visit our Privacy Policy to learn more. By continuing to use the site, you agree to this use of cookies and data.
EN

Hourly Weather Molodiya

Today, 5 August, Wednesday

Time Temperature Precipitation Wind Pressure Humidity
00:00 +19°C° 0 mm 3 mps 741 mmHg 64%
01:00 +19°C° 0 mm 2 mps 742 mmHg 66%
02:00 +18°C° 0 mm 2 mps 742 mmHg 67%
03:00 +17°C° 0 mm 2 mps 742 mmHg 70%
04:00 +18°C° 0 mm 1 mps 742 mmHg 73%
05:00 +16°C° 0 mm 1 mps 742 mmHg 75%
06:00 +19°C° 0 mm 1 mps 743 mmHg 74%
07:00 +20°C° 0 mm 1 mps 743 mmHg 73%
08:00 +21°C° 0 mm 2 mps 743 mmHg 71%
09:00 +23°C° 0 mm 2 mps 744 mmHg 67%
10:00 +25°C° 0 mm 2 mps 744 mmHg 63%
11:00 +26°C° 0 mm 2 mps 744 mmHg 60%
12:00 +27°C° 0 mm 2 mps 744 mmHg 55%
13:00 +28°C° 0 mm 2 mps 744 mmHg 50%
14:00 +29°C° 0 mm 3 mps 744 mmHg 45%
15:00 +29°C° 0 mm 3 mps 744 mmHg 45%
16:00 +29°C° 0 mm 3 mps 744 mmHg 45%
17:00 +29°C° 0 mm 2 mps 744 mmHg 45%
18:00 +27°C° 0 mm 2 mps 744 mmHg 49%
19:00 +24°C° 0 mm 1 mps 745 mmHg 54%
20:00 +20°C° 0 mm 0 mps 745 mmHg 59%
21:00 +21°C° 0 mm 1 mps 745 mmHg 62%
22:00 +21°C° 0 mm 1 mps 745 mmHg 64%
23:00 +20°C° 0 mm 1 mps 746 mmHg 67%

Tomorrow, 6 August, Thursday

Time Temperature Precipitation Wind Pressure Humidity
00:00 +19°C° 0 mm 1 mps 746 mmHg 70%
01:00 +19°C° 0 mm 1 mps 746 mmHg 73%
02:00 +18°C° 0 mm 1 mps 746 mmHg 76%
03:00 +18°C° 0 mm 1 mps 746 mmHg 77%
04:00 +18°C° 0 mm 1 mps 746 mmHg 79%
05:00 +16°C° 0 mm 1 mps 747 mmHg 81%
06:00 +19°C° 0 mm 1 mps 747 mmHg 76%
07:00 +21°C° 0 mm 1 mps 747 mmHg 71%
08:00 +23°C° 0 mm 1 mps 747 mmHg 66%
09:00 +25°C° 0 mm 2 mps 747 mmHg 60%
10:00 +27°C° 0 mm 2 mps 748 mmHg 54%
11:00 +28°C° 0 mm 2 mps 748 mmHg 47%
12:00 +29°C° 0 mm 3 mps 748 mmHg 45%
13:00 +30°C° 0 mm 3 mps 748 mmHg 42%
14:00 +31°C° 0 mm 3 mps 748 mmHg 40%
15:00 +31°C° 0 mm 3 mps 748 mmHg 42%
16:00 +31°C° 0 mm 3 mps 748 mmHg 44%
17:00 +30°C° 0 mm 3 mps 748 mmHg 47%
18:00 +28°C° 0 mm 3 mps 748 mmHg 54%
19:00 +26°C° 0 mm 3 mps 748 mmHg 60%
20:00 +24°C° 0 mm 2 mps 748 mmHg 67%
21:00 +23°C° 0 mm 2 mps 748 mmHg 70%
22:00 +21°C° 0 mm 2 mps 748 mmHg 73%
23:00 +21°C° 0 mm 1 mps 749 mmHg 75%

Day after tomorrow, 7 August, Friday

Time Temperature Precipitation Wind Pressure Humidity
00:00 +20°C° 0 mm 1 mps 749 mmHg 77%
01:00 +20°C° 0 mm 1 mps 749 mmHg 78%
02:00 +19°C° 0 mm 1 mps 749 mmHg 80%
03:00 +19°C° 0 mm 1 mps 749 mmHg 81%
04:00 +19°C° 0 mm 1 mps 749 mmHg 82%
05:00 +18°C° 0 mm 1 mps 749 mmHg 83%
06:00 +20°C° 0 mm 1 mps 749 mmHg 78%
07:00 +22°C° 0 mm 1 mps 750 mmHg 73%
08:00 +23°C° 0 mm 2 mps 750 mmHg 68%
09:00 +25°C° 0 mm 2 mps 750 mmHg 63%
10:00 +27°C° 0 mm 2 mps 750 mmHg 58%
11:00 +28°C° 0 mm 2 mps 750 mmHg 53%
12:00 +29°C° 0 mm 2 mps 749 mmHg 50%
13:00 +30°C° 0 mm 3 mps 749 mmHg 47%
14:00 +31°C° 0 mm 3 mps 749 mmHg 45%
15:00 +31°C° 0 mm 3 mps 749 mmHg 47%
16:00 +31°C° 0 mm 3 mps 749 mmHg 49%
17:00 +30°C° 0 mm 3 mps 748 mmHg 51%
18:00 +28°C° 0 mm 3 mps 748 mmHg 61%
19:00 +26°C° 0 mm 3 mps 749 mmHg 70%
20:00 +24°C° 0 mm 3 mps 749 mmHg 80%
21:00 +22°C° 0 mm 3 mps 749 mmHg 81%
22:00 +21°C° 0 mm 3 mps 749 mmHg 82%
23:00 +21°C° 0 mm 2 mps 749 mmHg 82%

8 August, Saturday

Time Temperature Precipitation Wind Pressure Humidity
00:00 +20°C° 0 mm 2 mps 749 mmHg 83%
01:00 +19°C° 0 mm 2 mps 749 mmHg 84%
02:00 +20°C° 0 mm 1 mps 749 mmHg 84%
03:00 +19°C° 0 mm 1 mps 749 mmHg 86%
04:00 +19°C° 0 mm 1 mps 749 mmHg 88%
05:00 +18°C° 0 mm 1 mps 749 mmHg 90%
06:00 +18°C° 0 mm 2 mps 749 mmHg 86%
07:00 +19°C° 0 mm 2 mps 749 mmHg 81%
08:00 +21°C° 0 mm 2 mps 749 mmHg 77%
09:00 +23°C° 0 mm 2 mps 749 mmHg 72%
10:00 +24°C° 0 mm 2 mps 749 mmHg 67%
11:00 +26°C° 0 mm 3 mps 749 mmHg 62%
12:00 +27°C° 0 mm 3 mps 749 mmHg 59%
13:00 +27°C° 0 mm 3 mps 748 mmHg 55%
14:00 +28°C° 0 mm 3 mps 748 mmHg 51%
15:00 +28°C° 0 mm 3 mps 748 mmHg 53%
16:00 +28°C° 0 mm 3 mps 748 mmHg 54%
17:00 +27°C° 0 mm 3 mps 747 mmHg 55%
18:00 +26°C° 0 mm 3 mps 747 mmHg 62%
19:00 +24°C° 0 mm 3 mps 747 mmHg 68%
20:00 +21°C° 0 mm 2 mps 747 mmHg 75%
21:00 +20°C° 0 mm 2 mps 748 mmHg 77%
22:00 +21°C° 0 mm 1 mps 748 mmHg 79%
23:00 +20°C° 0 mm 1 mps 748 mmHg 81%

9 August, Sunday

Time Temperature Precipitation Wind Pressure Humidity
00:00 +19°C° 0 mm 1 mps 748 mmHg 83%
01:00 +19°C° 0 mm 1 mps 747 mmHg 84%
02:00 +19°C° 0 mm 1 mps 747 mmHg 86%
03:00 +18°C° 0 mm 1 mps 747 mmHg 87%
04:00 +18°C° 0 mm 1 mps 747 mmHg 89%
05:00 +18°C° 0 mm 1 mps 747 mmHg 90%
06:00 +19°C° 0 mm 1 mps 747 mmHg 85%
07:00 +20°C° 0 mm 2 mps 747 mmHg 79%
08:00 +23°C° 0 mm 2 mps 747 mmHg 74%
09:00 +24°C° 0.2 mm 2 mps 747 mmHg 70%
10:00 +25°C° 0.2 mm 2 mps 747 mmHg 67%
11:00 +27°C° 0.2 mm 2 mps 747 mmHg 63%
12:00 +27°C° 0.5 mm 2 mps 746 mmHg 62%
13:00 +27°C° 0.5 mm 2 mps 746 mmHg 61%
14:00 +28°C° 0.5 mm 2 mps 746 mmHg 61%
15:00 +27°C° 0.4 mm 3 mps 746 mmHg 61%
16:00 +27°C° 0.4 mm 3 mps 745 mmHg 62%
17:00 +27°C° 0.4 mm 3 mps 745 mmHg 63%
18:00 +25°C° 0.7 mm 2 mps 745 mmHg 70%
19:00 +24°C° 0.7 mm 2 mps 745 mmHg 77%
20:00 +22°C° 0.7 mm 1 mps 745 mmHg 84%
21:00 +21°C° 0.4 mm 1 mps 745 mmHg 86%
22:00 +21°C° 0.4 mm 1 mps 745 mmHg 87%
23:00 +20°C° 0.4 mm 1 mps 745 mmHg 89%

10 August, Monday

Time Temperature Precipitation Wind Pressure Humidity
00:00 +20°C° 0.1 mm 1 mps 745 mmHg 89%
01:00 +19°C° 0.1 mm 1 mps 745 mmHg 90%
02:00 +19°C° 0.1 mm 1 mps 745 mmHg 91%
03:00 +19°C° 0 mm 1 mps 745 mmHg 91%
04:00 +19°C° 0 mm 1 mps 745 mmHg 91%
05:00 +18°C° 0 mm 1 mps 745 mmHg 91%
06:00 +19°C° 0 mm 1 mps 745 mmHg 87%
07:00 +21°C° 0 mm 1 mps 746 mmHg 83%
08:00 +22°C° 0 mm 1 mps 746 mmHg 78%
09:00 +23°C° 0.1 mm 1 mps 746 mmHg 71%
10:00 +25°C° 0.1 mm 2 mps 746 mmHg 64%
11:00 +26°C° 0.1 mm 2 mps 746 mmHg 56%
12:00 +27°C° 0 mm 2 mps 746 mmHg 53%
13:00 +27°C° 0 mm 2 mps 745 mmHg 50%
14:00 +28°C° 0 mm 3 mps 745 mmHg 46%
15:00 +28°C° 0 mm 2 mps 745 mmHg 47%
16:00 +28°C° 0 mm 2 mps 745 mmHg 48%
17:00 +28°C° 0 mm 2 mps 745 mmHg 49%
18:00 +26°C° 0 mm 2 mps 745 mmHg 55%
19:00 +24°C° 0 mm 2 mps 745 mmHg 61%
20:00 +23°C° 0 mm 2 mps 745 mmHg 67%
21:00 +22°C° 0 mm 1 mps 746 mmHg 70%
22:00 +21°C° 0 mm 1 mps 746 mmHg 73%
23:00 +20°C° 0 mm 1 mps 746 mmHg 77%
Show more